Regional Weather Roundup
Issued by NWS Cleveland, OH

Home | Current Version | Previous Version | Text Only | Print | Product List | Glossary Off
Versions: 1 2 3 4 5 6 7 8 9 10 11 12 13 14 15 16 17 18 19 20 21 22 23 24 25 26 27 28 29 30 31 32 33 34 35 36 37 38 39 40 41 42 43 44 45 46 47 48 49 50

000
ASUS41 KCLE 100210
RWRCLE
OHIO REGIONAL WEATHER ROUNDUP
NATIONAL WEATHER SERVICE CLEVELAND, OH
900 PM EST TUE FEB 09 2016

NOTE: "FAIR" INDICATES FEW OR NO CLOUDS BELOW 12,000 FEET WITH NO
SIGNIFICANT WEATHER AND/OR OBSTRUCTIONS TO VISIBILITY.

OHZ001>008-015>018-024>027-034-035-043-044-100300-
   NORTHWEST OHIO

CITY           SKY/WX    TMP DP  RH WIND       PRES   REMARKS
DEFIANCE       CLOUDY    25  16  68 W10G21    29.80S WCI  15
FINDLAY        CLOUDY    26  17  68 W22       29.77R WCI  12
TOLEDO EXPRESS CLOUDY    26  18  71 W12       29.75R WCI  16
TOLEDO EXEC    CLOUDY    27  18  69 W17       29.75R WCI  14
LIMA           FLURRIES  22  19  89 W15       29.80R WCI   9
$$

OHZ009>014-019>023-028>033-038-089-100300-
   NORTHEAST OHIO

CITY           SKY/WX    TMP DP  RH WIND       PRES   REMARKS
CLE-HOPKINS    LGT SNOW  27  22  81 W13       29.72S WCI  16
CLE-LAKEFRONT  LGT SNOW  29  26  89 W23G31    29.69S FOG     WCI  15
CUY CO. ARPT   LGT SNOW  28  27  93 NW12G23   29.68R WCI  18
LORAIN-ELYRIA  LGT SNOW  26  21  81 W16G23    29.72R WCI  14
ASHTABULA      LGT SNOW  27  25  92 W12G21    29.64S FOG     WCI  17
AKRON-CANTON   LGT SNOW  26  22  84 W13G22    29.68S WCI  15
WOOSTER        LGT SNOW  26  22  84 W18       29.71R FOG     WCI  13
MANSFIELD      LGT SNOW  24  20  84 W14       29.71S FOG     WCI  12
YOUNGSTOWN     LGT SNOW  28  24  85 W12       29.65R FOG     WCI  18
$$

OHZ042-051>053-060>062-070>072-077>081-100300-
  SOUTHWEST OHIO

CITY           SKY/WX    TMP DP  RH WIND       PRES   REMARKS
CINC-COVINGTON CLOUDY    20  13  74 W17       29.90R WCI   5
CINC-LUNKEN    CLOUDY    23  15  71 W15       29.94R WCI  10
HAMILTON       CLOUDY    22  15  75 W10G22    29.92R WCI  11
DAYTON         FLURRIES  20  15  81 W17       29.85R WCI   5
WRIGHT-PAT AFB FLURRIES  22  16  76 W12       29.85R WCI  11
DAYTON GENERAL LGT SNOW  20  14  77 W12       29.86R WCI   8
WILMINGTON     LGT SNOW  20  17  88 W12       29.84S FOG     WCI   8
$$

OHZ036-037-039>041-045>050-054>059-063>069-073>076-082>088-100300-
  CENTRAL AND SOUTHEAST OHIO

CITY           SKY/WX    TMP DP  RH WIND       PRES   REMARKS
COLUMBUS       FLURRIES  24  17  74 W17       29.81R WCI  11
OSU AIRPORT    LGT SNOW  23  18  81 W14G23    29.80R WCI  11
BOLTON FIELD   LGT SNOW  23  18  81 W9G18     29.82S WCI  13
RICKENBACK AFB LGT SNOW  24  20  85 W17       29.82S WCI  10
NEWARK         LGT SNOW  26  20  77 MISG      29.78R
MARION         LGT SNOW  24  17  74 W16G24    29.77S WCI  11
LANCASTER      LGT SNOW  23  19  85 W9        29.82R FOG     WCI  13
ZANESVILLE     FLURRIES  25  19  78 W10       29.77S WCI  15
NEW PHILLY     LGT SNOW  26  21  81 SW8G16    29.74R WCI  18
$$



USA.gov is the U.S. government's official web portal to all federal, state and local government web resources and services.